Simultaneous Nadir Overpasses (SNOs) Predictions

Prediction of SNOs between GOES-17 and NOAA-19 Satellite Orbit:

Table of predicted SNOs for the next 14.0 days since TLE Epoch: 11/4/2022
Index Date Time (GOES-17) GOES-17 Lat,Lon NOAA-19 Lat,Lon Distance(km) Time Diff (sec)
1 11/05/2022 05:33:27 0.04,-137.32 -0.83,-141.10 431.56 80
2 11/06/2022 05:21:33 0.04,-137.32 -0.15,-138.20 100.73 80
3 11/07/2022 05:06:59 0.04,-137.32 0.48,-135.29 230.05 80
4 11/09/2022 17:27:19 -0.03,-137.31 0.62,-140.12 320.90 80
5 11/10/2022 17:18:04 -0.03,-137.30 -0.03,-137.21 9.84 80
6 11/11/2022 17:06:11 -0.03,-137.29 -0.74,-134.32 339.65 80
7 11/14/2022 05:26:44 0.02,-137.25 -0.46,-139.18 221.68 80
8 11/15/2022 05:12:11 0.01,-137.23 0.25,-136.29 108.00 80
9 11/16/2022 05:00:17 0.01,-137.22 0.90,-133.38 437.54 80
10 11/17/2022 17:32:28 -0.01,-137.20 0.91,-141.09 444.98 80
11 11/18/2022 17:20:33 -0.01,-137.18 0.25,-138.19 115.59 80
